Skip Page Navigation
NASA JPL Caltech
NASA Logo - Jet Propulsion Laboratory + View the NASA Portal
+ Center for Near-Earth Object Studies
JPL Home Earth Solar System Stars & Galaxies Technology
JPL Solar System Dynamics
BODIES ORBITS EPHEMERIDES TOOLS PHYSICAL DATA DISCOVERY FAQ SITE MAP
JPL Small-Body Database Browser
Search: [ help ]  
362395 (2010 OP64)
Classification: Outer Main-belt Asteroid          SPK-ID: 2362395
Ephemeris | Orbit Diagram | Orbital Elements | Mission Design | Physical Parameters | Discovery Circumstances | Close-Approach Data ]

[ show orbit diagram ]
Orbital Elements at Epoch 2459396.5 (2021-Jul-01.0) TDB
Reference: JPL 18 (heliocentric ecliptic J2000)
 Element Value Uncertainty (1-sigma)   Units 
e .2120457600154099 4.8772e-08  
a 3.217586309416902 5.0733e-08 au
q 2.535310775021417 1.6187e-07 au
i 11.49055992078569 7.6209e-06 deg
node 223.9683280068146 2.7255e-05 deg
peri 261.7177134982344 3.207e-05 deg
M 231.5218193833338 1.9516e-05 deg
tp 2460148.851189720226
(2023-Jul-23.35118972)
0.00012397 TDB
period 2108.112264660659
5.77
4.9859e-05
1.365e-07
d
yr
n .170768894064543 4.0388e-09 deg/d
Q 3.899861843812387 6.149e-08 au
  Orbit Determination Parameters
   # obs. used (total)      286  
   data-arc span      4842 days (13.26 yr)  
   first obs. used      2007-04-11  
   last obs. used      2020-07-13  
   planetary ephem.      DE441  
   SB-pert. ephem.      SB441-N16  
   condition code      0  
   norm. resid. RMS      .53146  
   source      ORB  
   producer      Otto Matic  
   solution date      2021-Apr-14 09:39:21  

Additional Information
 Earth MOID = 1.58251 au 
 Jupiter MOID = 1.50935 au 
 T_jup = 3.123 
[ show covariance matrix ]

Ephemeris | Orbit Diagram | Orbital Elements | Mission Design | Physical Parameters | Discovery Circumstances | Close-Approach Data ]

Physical Parameter Table
Parameter Symbol Value Units Sigma Reference Notes
absolute magnitude H 15.56   n/a E2021B25  
diameter diameter 5.501 km 0.290 urn:nasa:pds:neowise_diameters_albedos::2.0[mainbelt] (http://adsabs.harvard.edu/abs/2011ApJ...741...68M)  
geometric albedo albedo 0.049   0.016 urn:nasa:pds:neowise_diameters_albedos::2.0[mainbelt] (http://adsabs.harvard.edu/abs/2011ApJ...741...68M)  

362395 (2010 OP64)          Discovered 2007-Apr-11 by Spacewatch at Kitt Peak
Reference: Last Updated: 2013-04-29

[ hide close-approach data ]
Close-Approach Data   ...sorted by Date/Time (TDB)
Date/Time (TDB) Time Uncertainty
(days_HH:MM)
Body Nominal Distance (au) Minimum Distance (au) Maximum Distance (au) V-relative (km/s) V-infinity (km/s) JD (TDB) Time Uncertainty (minutes) Semi-major axis (km) Semi-minor axis (km) range-LOV angle (deg) N-sigma BP Orbit Ref. Reference Modified
1987-Mar-07 13:17 00:03 Jupiter 1.74989970258194 1.74989779091915 1.74990161426175 3.19474528010524 3.0394598523906 2446862.053601587 3.24009938045174 335.819454966624 30.7784207014764 82.4942268422232 993707.120479674 T 18 CATAB v2.0f-lin.ifort 2021-Apr-14 09:39:22 2021-Apr-14 09:39
1998-Feb-15 23:48 00:03 Jupiter 1.5752207051937 1.57521942627706 1.57522198418404 1.09821602002096 0.36144845594401 2450860.491804322 2.56816173692062 25731.9725668839 572.625088388308 4.90501971175888 845345.960477452 T 18 CATAB v2.0f-lin.ifort 2021-Apr-14 09:39:22 2021-Apr-14 09:39
2009-Jan-23 15:46 00:01 Jupiter 1.51414716009394 1.51414602668132 1.51414829350661 0.980970322938809 n/a 2454855.156928413 1.1685226991608 174.689748024785 56.2786030256788 -88.1966910105945 4021794.18435637 F 18 CATAB v2.0f-lin.ifort 2021-Apr-14 09:39:22 2021-Apr-14 09:39
2020-Feb-23 23:14 < 00:01 Jupiter 1.58963468541117 1.58963369221676 1.58963567860477 2.22713790519125 1.97343894744344 2458903.468146603 0.667846416289406 186.965326779029 49.7129411591046 79.5235830744913 885419.785703841 T 18 CATAB v2.0f-lin.ifort 2021-Apr-14 09:39:22 2021-Apr-14 09:39
2031-Mar-23 18:49 00:01 Jupiter 1.82530222976141 1.8253010633734 1.82530339615185 3.3319628925433 3.18965304792936 2462949.284015873 1.20026858597162 178.965947753889 31.5861329661921 77.898545726015 1276199.9406917 T 18 CATAB v2.0f-lin.ifort 2021-Apr-14 09:39:22 2021-Apr-14 09:39
2130-May-01 22:51 00:05 Jupiter 1.91101582267033 1.91101210107758 1.91101954429763 4.57124596625153 4.4732344648721 2499147.452148196 4.98102829056215 459.039764330363 34.8530980048314 68.930631979238 1680451.99380705 T 18 CATAB v2.0f-lin.ifort 2021-Apr-14 09:39:22 2021-Apr-14 09:39
2141-May-05 10:57 00:05 Jupiter 1.61849448242177 1.6184919735392 1.61849699137398 3.0098281089394 2.83061578616709 2503168.956132245 5.38328836883938 607.61497736568 31.9042393872779 85.6914589370418 993943.146859971 T 18 CATAB v2.0f-lin.ifort 2021-Apr-14 09:39:22 2021-Apr-14 09:39
2152-May-27 01:14 00:06 Jupiter 1.50111834270836 1.50111714948434 1.50111953594808 1.55723056023809 1.1386154102419 2507208.551277794 6.44880523259661 1696.27136581573 200.742995096317 -31.6419804341496 630059.578765218 T 18 CATAB v2.0f-lin.ifort 2021-Apr-14 09:39:22 2021-Apr-14 09:39
2163-May-25 08:02 00:09 Jupiter 1.53629173168652 1.53628995251556 1.53629351205622 0.276430216807969 n/a 2511223.834542034 8.5656175963279 2823.90965975273 57.8699370877678 88.6343505876698 3969055.96554204 F 18 CATAB v2.0f-lin.ifort 2021-Apr-14 09:39:22 2021-Apr-14 09:39
2174-May-17 22:08 00:09 Jupiter 1.68820933695945 1.68820548981591 1.68821318416585 2.03171178305958 1.76759611862291 2515234.422144368 8.95028697268254 787.053567363524 143.68922470589 -69.3433040537417 390272.075019025 T 18 CATAB v2.0f-lin.ifort 2021-Apr-14 09:39:22 2021-Apr-14 09:39
2185-May-20 21:07 00:10 Jupiter 1.95878896236299 1.9587827456583 1.95879517920285 3.58324524918999 3.46046289749688 2519255.379854823 9.50286292905909 891.6066261812 32.05846360404 73.9548706968389 1211506.0772327 T 18 CATAB v2.0f-lin.ifort 2021-Apr-14 09:39:22 2021-Apr-14 09:39
Ephemeris | Orbit Diagram | Orbital Elements | Mission Design | Physical Parameters | Discovery Circumstances | Close-Approach Data ]
ABOUT SSD CREDITS/AWARDS PRIVACY/COPYRIGHT GLOSSARY LINKS
FirstGov 2021-Jul-27 23:16 UT
(server date/time)  
NASA Home Page
Site Manager:   Ryan S. Park
Webmaster  Alan B. Chamberlin